Year,Month,Day,Hour,Minute,Value (Times are PST for temperature in C)
2018,08,20,00,00,16.60
2018,08,20,00,01,16.60
2018,08,20,00,02,16.60
2018,08,20,00,03,16.60
2018,08,20,00,04,16.60
2018,08,20,00,05,16.60
2018,08,20,00,06,16.50
2018,08,20,00,07,16.50
2018,08,20,00,08,16.50
2018,08,20,00,09,16.40
2018,08,20,00,10,16.40
2018,08,20,00,11,16.40
2018,08,20,00,12,16.40
2018,08,20,00,13,16.40
2018,08,20,00,14,16.40
2018,08,20,00,15,16.30
2018,08,20,00,16,16.30
2018,08,20,00,17,16.30
2018,08,20,00,18,16.30
2018,08,20,00,19,16.30
2018,08,20,00,20,16.30
2018,08,20,00,21,16.30
2018,08,20,00,22,16.30
2018,08,20,00,23,16.30
2018,08,20,00,24,16.20
2018,08,20,00,25,16.20
2018,08,20,00,26,16.20
2018,08,20,00,27,16.20
2018,08,20,00,28,16.20
2018,08,20,00,29,16.20
2018,08,20,00,30,16.10
2018,08,20,00,31,16.10
2018,08,20,00,32,16.10
2018,08,20,00,33,16.10
2018,08,20,00,34,16.10
2018,08,20,00,35,16.00
2018,08,20,00,36,16.00
2018,08,20,00,37,16.00
2018,08,20,00,38,16.00
2018,08,20,00,39,15.90
2018,08,20,00,40,15.90
2018,08,20,00,41,15.90
2018,08,20,00,42,15.90
2018,08,20,00,43,15.90
2018,08,20,00,44,15.90
2018,08,20,00,45,15.90
2018,08,20,00,46,15.90
2018,08,20,00,47,15.90
2018,08,20,00,48,15.90
2018,08,20,00,49,15.90
2018,08,20,00,50,15.90
2018,08,20,00,51,15.90
2018,08,20,00,52,16.00
2018,08,20,00,53,16.00
2018,08,20,00,54,16.00
2018,08,20,00,55,15.90
2018,08,20,00,56,15.90
2018,08,20,00,57,15.90
2018,08,20,00,58,15.90
2018,08,20,00,59,15.90
2018,08,20,01,00,15.90
2018,08,20,01,01,15.90
2018,08,20,01,02,15.80
2018,08,20,01,03,15.80
2018,08,20,01,04,15.80
2018,08,20,01,05,15.80
2018,08,20,01,06,15.80
2018,08,20,01,07,15.80
2018,08,20,01,08,15.80
2018,08,20,01,09,15.70
2018,08,20,01,10,15.70
2018,08,20,01,11,15.70
2018,08,20,01,12,15.70
2018,08,20,01,13,15.70
2018,08,20,01,14,15.80
2018,08,20,01,15,15.80
2018,08,20,01,16,15.80
2018,08,20,01,17,15.80
2018,08,20,01,18,15.80
2018,08,20,01,19,15.80
2018,08,20,01,20,15.80
2018,08,20,01,21,15.80
2018,08,20,01,22,15.80
2018,08,20,01,23,15.80
2018,08,20,01,24,15.70
2018,08,20,01,25,15.70
2018,08,20,01,26,15.70
2018,08,20,01,27,15.70
2018,08,20,01,28,15.70
2018,08,20,01,29,15.70
2018,08,20,01,30,15.70
2018,08,20,01,31,15.60
2018,08,20,01,32,15.60
2018,08,20,01,33,15.60
2018,08,20,01,34,15.60
2018,08,20,01,35,15.50
2018,08,20,01,36,15.50
2018,08,20,01,37,15.50
2018,08,20,01,38,15.40
2018,08,20,01,39,15.40
2018,08,20,01,40,15.40
2018,08,20,01,41,15.40
2018,08,20,01,42,15.40
2018,08,20,01,43,15.30
2018,08,20,01,44,15.30
2018,08,20,01,45,15.30
2018,08,20,01,46,15.30
2018,08,20,01,47,15.30
2018,08,20,01,48,15.30
2018,08,20,01,49,15.30
2018,08,20,01,50,15.30
2018,08,20,01,51,15.20
2018,08,20,01,52,15.20
2018,08,20,01,53,15.20
2018,08,20,01,54,15.20
2018,08,20,01,55,15.30
2018,08,20,01,56,15.30
2018,08,20,01,57,15.30
2018,08,20,01,58,15.30
2018,08,20,01,59,15.40
2018,08,20,02,00,15.40
2018,08,20,02,01,15.40
2018,08,20,02,02,15.40
2018,08,20,02,03,15.40
2018,08,20,02,04,15.50
2018,08,20,02,05,15.50
2018,08,20,02,06,15.60
2018,08,20,02,07,15.60
2018,08,20,02,08,15.60
2018,08,20,02,09,15.60
2018,08,20,02,10,15.60
2018,08,20,02,11,15.70
2018,08,20,02,12,15.60
2018,08,20,02,13,15.60
2018,08,20,02,14,15.60
2018,08,20,02,15,15.60
2018,08,20,02,16,15.60
2018,08,20,02,17,15.60
2018,08,20,02,18,15.60
2018,08,20,02,19,15.50
2018,08,20,02,20,15.50
2018,08,20,02,21,15.50
2018,08,20,02,22,15.50
2018,08,20,02,23,15.40
2018,08,20,02,24,15.40
2018,08,20,02,25,15.40
2018,08,20,02,26,15.40
2018,08,20,02,27,15.50
2018,08,20,02,28,15.50
2018,08,20,02,29,15.60
2018,08,20,02,30,15.60
2018,08,20,02,31,15.60
2018,08,20,02,32,15.60
2018,08,20,02,33,15.60
2018,08,20,02,34,15.60
2018,08,20,02,35,15.60
2018,08,20,02,36,15.60
2018,08,20,02,37,15.60
2018,08,20,02,38,15.50
2018,08,20,02,39,15.50
2018,08,20,02,40,15.50
2018,08,20,02,41,15.50
2018,08,20,02,42,15.50
2018,08,20,02,43,15.40
2018,08,20,02,44,15.40
2018,08,20,02,45,15.40
2018,08,20,02,46,15.40
2018,08,20,02,47,15.40
2018,08,20,02,48,15.30
2018,08,20,02,49,15.30
2018,08,20,02,50,15.30
2018,08,20,02,51,15.30
2018,08,20,02,52,15.20
2018,08,20,02,53,15.20
2018,08,20,02,54,15.20
2018,08,20,02,55,15.20
2018,08,20,02,56,15.20
2018,08,20,02,57,15.10
2018,08,20,02,58,15.10
2018,08,20,02,59,15.10
2018,08,20,03,00,15.10
2018,08,20,03,01,15.00
2018,08,20,03,02,15.00
2018,08,20,03,03,14.90
2018,08,20,03,04,14.90
2018,08,20,03,05,14.90
2018,08,20,03,06,14.90
2018,08,20,03,07,14.90
2018,08,20,03,08,14.90
2018,08,20,03,09,14.90
2018,08,20,03,10,14.80
2018,08,20,03,11,14.80
2018,08,20,03,12,14.80
2018,08,20,03,13,14.80
2018,08,20,03,14,14.80
2018,08,20,03,15,14.70
2018,08,20,03,16,14.70
2018,08,20,03,17,14.70
2018,08,20,03,18,14.70
2018,08,20,03,19,14.70
2018,08,20,03,20,14.70
2018,08,20,03,21,14.70
2018,08,20,03,22,14.70
2018,08,20,03,23,14.70
2018,08,20,03,24,14.70
2018,08,20,03,25,14.60
2018,08,20,03,26,14.60
2018,08,20,03,27,14.60
2018,08,20,03,28,14.60
2018,08,20,03,29,14.60
2018,08,20,03,30,14.60
2018,08,20,03,31,14.60
2018,08,20,03,32,14.60
2018,08,20,03,33,14.60
2018,08,20,03,34,14.60
2018,08,20,03,35,14.60
2018,08,20,03,36,14.60
2018,08,20,03,37,14.60
2018,08,20,03,38,14.60
2018,08,20,03,39,14.60
2018,08,20,03,40,14.60
2018,08,20,03,41,14.60
2018,08,20,03,42,14.60
2018,08,20,03,43,14.60
2018,08,20,03,44,14.60
2018,08,20,03,45,14.60
2018,08,20,03,46,14.60
2018,08,20,03,47,14.60
2018,08,20,03,48,14.60
2018,08,20,03,49,14.60
2018,08,20,03,50,14.60
2018,08,20,03,51,14.60
2018,08,20,03,52,14.60
2018,08,20,03,53,14.60
2018,08,20,03,54,14.60
2018,08,20,03,55,14.60
2018,08,20,03,56,14.60
2018,08,20,03,57,14.60
2018,08,20,03,58,14.60
2018,08,20,03,59,14.50
2018,08,20,04,00,14.50
2018,08,20,04,01,14.60
2018,08,20,04,02,14.60
2018,08,20,04,03,14.60
2018,08,20,04,04,14.60
2018,08,20,04,05,14.60
2018,08,20,04,06,14.60
2018,08,20,04,07,14.60
2018,08,20,04,08,14.60
2018,08,20,04,09,14.50
2018,08,20,04,10,14.50
2018,08,20,04,11,14.50
2018,08,20,04,12,14.40
2018,08,20,04,13,14.40
2018,08,20,04,14,14.40
2018,08,20,04,15,14.40
2018,08,20,04,16,14.40
2018,08,20,04,17,14.40
2018,08,20,04,18,14.40
2018,08,20,04,19,14.40
2018,08,20,04,20,14.40
2018,08,20,04,21,14.50
2018,08,20,04,22,14.50
2018,08,20,04,23,14.50
2018,08,20,04,24,14.50
2018,08,20,04,25,14.50
2018,08,20,04,26,14.60
2018,08,20,04,27,14.60
2018,08,20,04,28,14.60
2018,08,20,04,29,14.50
2018,08,20,04,30,14.50
2018,08,20,04,31,14.50
2018,08,20,04,32,14.50
2018,08,20,04,33,14.50
2018,08,20,04,34,14.40
2018,08,20,04,35,14.40
2018,08,20,04,36,14.40
2018,08,20,04,37,14.40
2018,08,20,04,38,14.30
2018,08,20,04,39,14.30
2018,08,20,04,40,14.30
2018,08,20,04,41,14.30
2018,08,20,04,42,14.30
2018,08,20,04,43,14.20
2018,08,20,04,44,14.20
2018,08,20,04,45,14.20
2018,08,20,04,46,14.20
2018,08,20,04,47,14.20
2018,08,20,04,48,14.20
2018,08,20,04,49,14.10
2018,08,20,04,50,14.20
2018,08,20,04,51,14.20
2018,08,20,04,52,14.20
2018,08,20,04,53,14.20
2018,08,20,04,54,14.20
2018,08,20,04,55,14.10
2018,08,20,04,56,14.10
2018,08,20,04,57,14.10
2018,08,20,04,58,14.10
2018,08,20,04,59,14.10
2018,08,20,05,00,14.00
2018,08,20,05,01,14.00
2018,08,20,05,02,14.00
2018,08,20,05,03,13.90
2018,08,20,05,04,13.90
2018,08,20,05,05,13.90
2018,08,20,05,06,13.90
2018,08,20,05,07,13.90
2018,08,20,05,08,13.80
2018,08,20,05,09,13.80
2018,08,20,05,10,13.80
2018,08,20,05,11,13.80
2018,08,20,05,12,13.80
2018,08,20,05,13,13.80
2018,08,20,05,14,13.80
2018,08,20,05,15,13.80
2018,08,20,05,16,13.80
2018,08,20,05,17,13.80
2018,08,20,05,18,13.80
2018,08,20,05,19,13.80
2018,08,20,05,20,13.80
2018,08,20,05,21,13.70
2018,08,20,05,22,13.80
2018,08,20,05,23,13.80
2018,08,20,05,24,13.80
2018,08,20,05,25,13.80
2018,08,20,05,26,13.90
2018,08,20,05,27,13.90
2018,08,20,05,28,13.90
2018,08,20,05,29,13.90
2018,08,20,05,30,13.80
2018,08,20,05,31,13.80
2018,08,20,05,32,13.80
2018,08,20,05,33,13.80
2018,08,20,05,34,13.80
2018,08,20,05,35,13.80
2018,08,20,05,36,13.80
2018,08,20,05,37,13.80
2018,08,20,05,38,13.80
2018,08,20,05,39,13.90
2018,08,20,05,40,13.80
2018,08,20,05,41,13.90
2018,08,20,05,42,13.90
2018,08,20,05,43,14.00
2018,08,20,05,44,14.00
2018,08,20,05,45,14.10
2018,08,20,05,46,14.10
2018,08,20,05,47,14.20
2018,08,20,05,48,14.20
2018,08,20,05,49,14.20
2018,08,20,05,50,14.20
2018,08,20,05,51,14.20
2018,08,20,05,52,14.20
2018,08,20,05,53,14.20
2018,08,20,05,54,14.20
2018,08,20,05,55,14.20
2018,08,20,05,56,14.20
2018,08,20,05,57,14.20
2018,08,20,05,58,14.20
2018,08,20,05,59,14.20
2018,08,20,06,00,14.10
2018,08,20,06,01,14.10
2018,08,20,06,02,14.10
2018,08,20,06,03,14.10
2018,08,20,06,04,14.10
2018,08,20,06,05,14.10
2018,08,20,06,06,14.10
2018,08,20,06,07,14.10
2018,08,20,06,08,14.10
2018,08,20,06,09,14.10
2018,08,20,06,10,14.10
2018,08,20,06,11,14.10
2018,08,20,06,12,14.10
2018,08,20,06,13,14.10
2018,08,20,06,14,14.10
2018,08,20,06,15,14.00
2018,08,20,06,16,14.00
2018,08,20,06,17,13.90
2018,08,20,06,18,13.90
2018,08,20,06,19,13.90
2018,08,20,06,20,13.90
2018,08,20,06,21,13.80
2018,08,20,06,22,13.80
2018,08,20,06,23,13.80
2018,08,20,06,24,13.80
2018,08,20,06,25,13.70
2018,08,20,06,26,13.70
2018,08,20,06,27,13.70
2018,08,20,06,28,13.70
2018,08,20,06,29,13.60
2018,08,20,06,30,13.60
2018,08,20,06,31,13.60
2018,08,20,06,32,13.60
2018,08,20,06,33,13.60
2018,08,20,06,34,13.60
2018,08,20,06,35,13.60
2018,08,20,06,36,13.60
2018,08,20,06,37,13.60
2018,08,20,06,38,13.50
2018,08,20,06,39,13.50
2018,08,20,06,40,13.50
2018,08,20,06,41,13.60
2018,08,20,06,42,13.60
2018,08,20,06,43,13.60
2018,08,20,06,44,13.70
2018,08,20,06,45,13.70
2018,08,20,06,46,13.70
2018,08,20,06,47,13.70
2018,08,20,06,48,13.60
2018,08,20,06,49,13.60
2018,08,20,06,50,13.60
2018,08,20,06,51,13.60
2018,08,20,06,52,13.60
2018,08,20,06,53,13.60
2018,08,20,06,54,13.60
2018,08,20,06,55,13.60
2018,08,20,06,56,13.60
2018,08,20,06,57,13.60
2018,08,20,06,58,13.60
2018,08,20,06,59,13.60
2018,08,20,07,00,13.60
2018,08,20,07,01,13.60
2018,08,20,07,02,13.60
2018,08,20,07,03,13.60
2018,08,20,07,04,13.60
2018,08,20,07,05,13.60
2018,08,20,07,06,13.60
2018,08,20,07,07,13.60
2018,08,20,07,08,13.60
2018,08,20,07,09,13.60
2018,08,20,07,10,13.60
2018,08,20,07,11,13.60
2018,08,20,07,12,13.60
2018,08,20,07,13,13.60
2018,08,20,07,14,13.60
2018,08,20,07,15,13.60
2018,08,20,07,16,13.60
2018,08,20,07,17,13.60
2018,08,20,07,18,13.60
2018,08,20,07,19,13.70
2018,08,20,07,20,13.70
2018,08,20,07,21,13.70
2018,08,20,07,22,13.70
2018,08,20,07,23,13.70
2018,08,20,07,24,13.70
2018,08,20,07,25,13.70
2018,08,20,07,26,13.80
2018,08,20,07,27,13.80
2018,08,20,07,28,13.80
2018,08,20,07,29,13.80
2018,08,20,07,30,13.80
2018,08,20,07,31,13.90
2018,08,20,07,32,13.90
2018,08,20,07,33,13.90
2018,08,20,07,34,14.00
2018,08,20,07,35,14.00
2018,08,20,07,36,14.00
2018,08,20,07,37,14.10
2018,08,20,07,38,14.10
2018,08,20,07,39,14.10
2018,08,20,07,40,14.10
2018,08,20,07,41,14.10
2018,08,20,07,42,14.10
2018,08,20,07,43,14.10
2018,08,20,07,44,14.10
2018,08,20,07,45,14.20
2018,08,20,07,46,14.20
2018,08,20,07,47,14.20
2018,08,20,07,48,14.20
2018,08,20,07,49,14.20
2018,08,20,07,50,14.30
2018,08,20,07,51,14.30
2018,08,20,07,52,14.40
2018,08,20,07,53,14.40
2018,08,20,07,54,14.50
2018,08,20,07,55,14.60
2018,08,20,07,56,14.70
2018,08,20,07,57,14.70
2018,08,20,07,58,14.80
2018,08,20,07,59,14.80
2018,08,20,08,00,14.80
2018,08,20,08,01,14.90
2018,08,20,08,02,14.90
2018,08,20,08,03,14.90
2018,08,20,08,04,14.90
2018,08,20,08,05,15.00
2018,08,20,08,06,15.00
2018,08,20,08,07,15.00
2018,08,20,08,08,15.10
2018,08,20,08,09,15.10
2018,08,20,08,10,15.10
2018,08,20,08,11,15.20
2018,08,20,08,12,15.20
2018,08,20,08,13,15.30
2018,08,20,08,14,15.30
2018,08,20,08,15,15.30
2018,08,20,08,16,15.30
2018,08,20,08,17,15.30
2018,08,20,08,18,15.40
2018,08,20,08,19,15.40
2018,08,20,08,20,15.40
2018,08,20,08,21,15.40
2018,08,20,08,22,15.50
2018,08,20,08,23,15.50
2018,08,20,08,24,15.60
2018,08,20,08,25,15.60
2018,08,20,08,26,15.60
2018,08,20,08,27,15.60
2018,08,20,08,28,15.60
2018,08,20,08,29,15.70
2018,08,20,08,30,15.70
2018,08,20,08,31,15.70
2018,08,20,08,32,15.70
2018,08,20,08,33,15.80
2018,08,20,08,34,15.80
2018,08,20,08,35,15.80
2018,08,20,08,36,15.90
2018,08,20,08,37,15.90
2018,08,20,08,38,15.90
2018,08,20,08,39,16.00
2018,08,20,08,40,16.00
2018,08,20,08,41,16.10
2018,08,20,08,42,16.10
2018,08,20,08,43,16.20
2018,08,20,08,44,16.20
2018,08,20,08,45,16.30
2018,08,20,08,46,16.30
2018,08,20,08,47,16.40
2018,08,20,08,48,16.40
2018,08,20,08,49,16.50
2018,08,20,08,50,16.60
2018,08,20,08,51,16.70
2018,08,20,08,52,16.70
2018,08,20,08,53,16.80
2018,08,20,08,54,16.80
2018,08,20,08,55,16.80
2018,08,20,08,56,16.90
2018,08,20,08,57,16.90
2018,08,20,08,58,17.00
2018,08,20,08,59,17.00
2018,08,20,09,00,17.10
2018,08,20,09,01,17.20
2018,08,20,09,02,17.20
2018,08,20,09,03,17.30
2018,08,20,09,04,17.30
2018,08,20,09,05,17.40
2018,08,20,09,06,17.40
2018,08,20,09,07,17.50
2018,08,20,09,08,17.50
2018,08,20,09,09,17.60
2018,08,20,09,10,17.70
2018,08,20,09,11,17.70
2018,08,20,09,12,17.80
2018,08,20,09,13,17.80
2018,08,20,09,14,17.90
2018,08,20,09,15,18.00
2018,08,20,09,16,18.00
2018,08,20,09,17,18.10
2018,08,20,09,18,18.10
2018,08,20,09,19,18.20
2018,08,20,09,20,18.30
2018,08,20,09,21,18.30
2018,08,20,09,22,18.40
2018,08,20,09,23,18.40
2018,08,20,09,24,18.40
2018,08,20,09,25,18.50
2018,08,20,09,26,18.50
2018,08,20,09,27,18.60
2018,08,20,09,28,18.60
2018,08,20,09,29,18.60
2018,08,20,09,30,18.70
2018,08,20,09,31,18.70
2018,08,20,09,32,18.70
2018,08,20,09,33,18.80
2018,08,20,09,34,18.80
2018,08,20,09,35,18.80
2018,08,20,09,36,18.80
2018,08,20,09,37,18.90
2018,08,20,09,38,18.90
2018,08,20,09,39,18.90
2018,08,20,09,40,18.90
2018,08,20,09,41,19.00
2018,08,20,09,42,19.10
2018,08,20,09,43,19.10
2018,08,20,09,44,19.20
2018,08,20,09,45,19.20
2018,08,20,09,46,19.30
2018,08,20,09,47,19.40
2018,08,20,09,48,19.50
2018,08,20,09,49,19.50
2018,08,20,09,50,19.60
2018,08,20,09,51,19.70
2018,08,20,09,52,19.70
2018,08,20,09,53,19.80
2018,08,20,09,54,19.80
2018,08,20,09,55,19.90
2018,08,20,09,56,19.90
2018,08,20,09,57,20.00
2018,08,20,09,58,20.00
2018,08,20,09,59,20.10
2018,08,20,10,00,20.10
2018,08,20,10,01,20.10
2018,08,20,10,02,20.20
2018,08,20,10,03,20.20
2018,08,20,10,04,20.20
2018,08,20,10,05,20.20
2018,08,20,10,06,20.20
2018,08,20,10,07,20.30
2018,08,20,10,08,20.30
2018,08,20,10,09,20.30
2018,08,20,10,10,20.40
2018,08,20,10,11,20.40
2018,08,20,10,12,20.50
2018,08,20,10,13,20.50
2018,08,20,10,14,20.60
2018,08,20,10,15,20.60
2018,08,20,10,16,20.70
2018,08,20,10,17,20.70
2018,08,20,10,18,20.80
2018,08,20,10,19,20.80
2018,08,20,10,20,20.80
2018,08,20,10,21,20.80
2018,08,20,10,22,20.90
2018,08,20,10,23,21.00
2018,08,20,10,24,21.00
2018,08,20,10,25,21.10
2018,08,20,10,26,21.10
2018,08,20,10,27,21.10
2018,08,20,10,28,21.10
2018,08,20,10,29,21.10
2018,08,20,10,30,21.10
2018,08,20,10,31,21.20
2018,08,20,10,32,21.20
2018,08,20,10,33,21.20
2018,08,20,10,34,21.30
2018,08,20,10,35,21.30
2018,08,20,10,36,21.30
2018,08,20,10,37,21.40
2018,08,20,10,38,21.50
2018,08,20,10,39,21.50
2018,08,20,10,40,21.60
2018,08,20,10,41,21.70
2018,08,20,10,42,21.70
2018,08,20,10,43,21.70
2018,08,20,10,44,21.80
2018,08,20,10,45,21.80
2018,08,20,10,46,21.90
2018,08,20,10,47,22.00
2018,08,20,10,48,22.00
2018,08,20,10,49,22.10
2018,08,20,10,50,22.10
2018,08,20,10,51,22.20
2018,08,20,10,52,22.20
2018,08,20,10,53,22.30
2018,08,20,10,54,22.40
2018,08,20,10,55,22.40
2018,08,20,10,56,22.50
2018,08,20,10,57,22.60
2018,08,20,10,58,22.70
2018,08,20,10,59,22.70
2018,08,20,11,00,22.80
2018,08,20,11,01,22.90
2018,08,20,11,02,23.00
2018,08,20,11,03,23.10
2018,08,20,11,04,23.10
2018,08,20,11,05,23.20
2018,08,20,11,06,23.30
2018,08,20,11,07,23.40
2018,08,20,11,08,23.50
2018,08,20,11,09,23.50
2018,08,20,11,10,23.60
2018,08,20,11,11,23.70
2018,08,20,11,12,23.80
2018,08,20,11,13,23.80
2018,08,20,11,14,23.80
2018,08,20,11,15,23.80
2018,08,20,11,16,23.80
2018,08,20,11,17,23.70
2018,08,20,11,18,23.60
2018,08,20,11,19,23.50
2018,08,20,11,20,23.40
2018,08,20,11,21,23.40
2018,08,20,11,22,23.40
2018,08,20,11,23,23.40
2018,08,20,11,24,23.30
2018,08,20,11,25,23.20
2018,08,20,11,26,23.20
2018,08,20,11,27,23.10
2018,08,20,11,28,23.10
2018,08,20,11,29,23.20
2018,08,20,11,30,23.20
2018,08,20,11,31,23.20
2018,08,20,11,32,23.20
2018,08,20,11,33,23.20
2018,08,20,11,34,23.00
2018,08,20,11,35,22.90
2018,08,20,11,36,22.80
2018,08,20,11,37,22.80
2018,08,20,11,38,22.70
2018,08,20,11,39,22.70
2018,08,20,11,40,22.70
2018,08,20,11,41,22.60
2018,08,20,11,42,22.50
2018,08,20,11,43,22.40
2018,08,20,11,44,22.30
2018,08,20,11,45,22.30
2018,08,20,11,46,22.20
2018,08,20,11,47,22.20
2018,08,20,11,48,22.30
2018,08,20,11,49,22.40
2018,08,20,11,50,22.50
2018,08,20,11,51,22.70
2018,08,20,11,52,22.90
2018,08,20,11,53,23.00
2018,08,20,11,54,23.10
2018,08,20,11,55,23.20
2018,08,20,11,56,23.30
2018,08,20,11,57,23.40
2018,08,20,11,58,23.40
2018,08,20,11,59,23.50
2018,08,20,12,00,23.60
2018,08,20,12,01,23.70
2018,08,20,12,02,23.80
2018,08,20,12,03,23.80
2018,08,20,12,04,23.90
2018,08,20,12,05,23.90
2018,08,20,12,06,24.00
2018,08,20,12,07,23.90
2018,08,20,12,08,23.90
2018,08,20,12,09,23.80
2018,08,20,12,10,23.80
2018,08,20,12,11,23.80
2018,08,20,12,12,23.80
2018,08,20,12,13,23.80
2018,08,20,12,14,23.80
2018,08,20,12,15,23.90
2018,08,20,12,16,23.90
2018,08,20,12,17,23.90
2018,08,20,12,18,23.90
2018,08,20,12,19,23.90
2018,08,20,12,20,23.90
2018,08,20,12,21,23.90
2018,08,20,12,22,23.90
2018,08,20,12,23,23.90
2018,08,20,12,24,24.00
2018,08,20,12,25,24.00
2018,08,20,12,26,24.10
2018,08,20,12,27,24.10
2018,08,20,12,28,24.10
2018,08,20,12,29,24.00
2018,08,20,12,30,23.90
2018,08,20,12,31,23.80
2018,08,20,12,32,23.70
2018,08,20,12,33,23.60
2018,08,20,12,34,23.50
2018,08,20,12,35,23.40
2018,08,20,12,36,23.40
2018,08,20,12,37,23.30
2018,08,20,12,38,23.30
2018,08,20,12,39,23.30
2018,08,20,12,40,23.40
2018,08,20,12,41,23.40
2018,08,20,12,42,23.40
2018,08,20,12,43,23.40
2018,08,20,12,44,23.40
2018,08,20,12,45,23.40
2018,08,20,12,46,23.50
2018,08,20,12,47,23.60
2018,08,20,12,48,23.60
2018,08,20,12,49,23.70
2018,08,20,12,50,23.70
2018,08,20,12,51,23.80
2018,08,20,12,52,23.90
2018,08,20,12,53,23.90
2018,08,20,12,54,24.00
2018,08,20,12,55,24.10
2018,08,20,12,56,24.10
2018,08,20,12,57,24.20
2018,08,20,12,58,24.30
2018,08,20,12,59,24.40
2018,08,20,13,00,24.50
2018,08,20,13,01,24.60
2018,08,20,13,02,24.70
2018,08,20,13,03,24.80
2018,08,20,13,04,24.90
2018,08,20,13,05,25.10
2018,08,20,13,06,25.20
2018,08,20,13,07,25.30
2018,08,20,13,08,25.40
2018,08,20,13,09,25.40
2018,08,20,13,10,25.50
2018,08,20,13,11,25.50
2018,08,20,13,12,25.60
2018,08,20,13,13,25.60
2018,08,20,13,14,25.70
2018,08,20,13,15,25.80
2018,08,20,13,16,25.90
2018,08,20,13,17,26.10
2018,08,20,13,18,26.40
2018,08,20,13,19,26.80
2018,08,20,13,20,27.10
2018,08,20,13,21,27.40
2018,08,20,13,22,27.70
2018,08,20,13,23,27.90
2018,08,20,13,24,28.10
2018,08,20,13,25,28.30
2018,08,20,13,26,28.40
2018,08,20,13,27,28.50
2018,08,20,13,28,28.60
2018,08,20,13,29,28.80
2018,08,20,13,30,28.90
2018,08,20,13,31,29.00
2018,08,20,13,32,29.00
2018,08,20,13,33,29.10
2018,08,20,13,34,29.20
2018,08,20,13,35,29.20
2018,08,20,13,36,29.20
2018,08,20,13,37,29.30
2018,08,20,13,38,29.30
2018,08,20,13,39,29.40
2018,08,20,13,40,29.40
2018,08,20,13,41,29.40
2018,08,20,13,42,29.40
2018,08,20,13,43,29.40
2018,08,20,13,44,29.40
2018,08,20,13,45,29.40
2018,08,20,13,46,29.40
2018,08,20,13,47,29.50
2018,08,20,13,48,29.60
2018,08,20,13,49,29.60
2018,08,20,13,50,29.60
2018,08,20,13,51,29.60
2018,08,20,13,52,29.50
2018,08,20,13,53,29.50
2018,08,20,13,54,29.50
2018,08,20,13,55,29.50
2018,08,20,13,56,29.50
2018,08,20,13,57,29.50
2018,08,20,13,58,29.50
2018,08,20,13,59,29.40
2018,08,20,14,00,29.50
2018,08,20,14,01,29.50
2018,08,20,14,02,29.60
2018,08,20,14,03,29.60
2018,08,20,14,04,29.70
2018,08,20,14,05,29.80
2018,08,20,14,06,29.80
2018,08,20,14,07,29.90
2018,08,20,14,08,29.90
2018,08,20,14,09,29.90
2018,08,20,14,10,29.90
2018,08,20,14,11,29.90
2018,08,20,14,12,29.90
2018,08,20,14,13,29.90
2018,08,20,14,14,29.90
2018,08,20,14,15,29.90
2018,08,20,14,16,29.90
2018,08,20,14,17,29.90
2018,08,20,14,18,29.90
2018,08,20,14,19,29.90
2018,08,20,14,20,29.90
2018,08,20,14,21,29.90
2018,08,20,14,22,30.00
2018,08,20,14,23,30.00
2018,08,20,14,24,30.00
2018,08,20,14,25,30.00
2018,08,20,14,26,30.00
2018,08,20,14,27,30.00
2018,08,20,14,28,30.00
2018,08,20,14,29,30.10
2018,08,20,14,30,30.10
2018,08,20,14,31,30.10
2018,08,20,14,32,30.00
2018,08,20,14,33,29.90
2018,08,20,14,34,29.90
2018,08,20,14,35,29.80
2018,08,20,14,36,29.80
2018,08,20,14,37,29.80
2018,08,20,14,38,29.80
2018,08,20,14,39,29.80
2018,08,20,14,40,29.90
2018,08,20,14,41,29.80
2018,08,20,14,42,29.80
2018,08,20,14,43,29.90
2018,08,20,14,44,29.90
2018,08,20,14,45,29.90
2018,08,20,14,46,29.90
2018,08,20,14,47,29.90
2018,08,20,14,48,29.90
2018,08,20,14,49,29.90
2018,08,20,14,50,29.90
2018,08,20,14,51,29.90
2018,08,20,14,52,29.90
2018,08,20,14,53,29.80
2018,08,20,14,54,29.80
2018,08,20,14,55,29.80
2018,08,20,14,56,29.80
2018,08,20,14,57,29.70
2018,08,20,14,58,29.70
2018,08,20,14,59,29.70
2018,08,20,15,00,29.80
2018,08,20,15,01,29.80
2018,08,20,15,02,29.80
2018,08,20,15,03,29.80
2018,08,20,15,04,29.70
2018,08,20,15,05,29.70
2018,08,20,15,06,29.70
2018,08,20,15,07,29.60
2018,08,20,15,08,29.60
2018,08,20,15,09,29.60
2018,08,20,15,10,29.60
2018,08,20,15,11,29.60
2018,08,20,15,12,29.60
2018,08,20,15,13,29.60
2018,08,20,15,14,29.70
2018,08,20,15,15,29.70
2018,08,20,15,16,29.70
2018,08,20,15,17,29.80
2018,08,20,15,18,29.80
2018,08,20,15,19,29.80
2018,08,20,15,20,29.80
2018,08,20,15,21,29.80
2018,08,20,15,22,29.80
2018,08,20,15,23,29.80
2018,08,20,15,24,29.80
2018,08,20,15,25,29.80
2018,08,20,15,26,29.80
2018,08,20,15,27,29.80
2018,08,20,15,28,29.90
2018,08,20,15,29,29.90
2018,08,20,15,30,30.00
2018,08,20,15,31,30.00
2018,08,20,15,32,30.00
2018,08,20,15,33,30.10
2018,08,20,15,34,30.10
2018,08,20,15,35,30.20
2018,08,20,15,36,30.20
2018,08,20,15,37,30.20
2018,08,20,15,38,30.20
2018,08,20,15,39,30.20
2018,08,20,15,40,30.20
2018,08,20,15,41,30.20
2018,08,20,15,42,30.20
2018,08,20,15,43,30.20
2018,08,20,15,44,30.20
2018,08,20,15,45,30.30
2018,08,20,15,46,30.30
2018,08,20,15,47,30.30
2018,08,20,15,48,30.40
2018,08,20,15,49,30.40
2018,08,20,15,50,30.50
2018,08,20,15,51,30.50
2018,08,20,15,52,30.50
2018,08,20,15,53,30.60
2018,08,20,15,54,30.50
2018,08,20,15,55,30.50
2018,08,20,15,56,30.50
2018,08,20,15,57,30.40
2018,08,20,15,58,30.40
2018,08,20,15,59,30.40
2018,08,20,16,00,30.40
2018,08,20,16,01,30.50
2018,08,20,16,02,30.50
2018,08,20,16,03,30.50
2018,08,20,16,04,30.60
2018,08,20,16,05,30.60
2018,08,20,16,06,30.70
2018,08,20,16,07,30.70
2018,08,20,16,08,30.70
2018,08,20,16,09,30.80
2018,08,20,16,10,30.80
2018,08,20,16,11,30.80
2018,08,20,16,12,30.90
2018,08,20,16,13,30.90
2018,08,20,16,14,30.90
2018,08,20,16,15,31.00
2018,08,20,16,16,31.00
2018,08,20,16,17,31.00
2018,08,20,16,18,31.00
2018,08,20,16,19,31.00
2018,08,20,16,20,31.00
2018,08,20,16,21,31.00
2018,08,20,16,22,31.00
2018,08,20,16,23,31.00
2018,08,20,16,24,31.00
2018,08,20,16,25,31.00
2018,08,20,16,26,31.10
2018,08,20,16,27,31.10
2018,08,20,16,28,31.10
2018,08,20,16,29,31.10
2018,08,20,16,30,31.10
2018,08,20,16,31,31.10
2018,08,20,16,32,31.10
2018,08,20,16,33,31.10
2018,08,20,16,34,31.10
2018,08,20,16,35,31.00
2018,08,20,16,36,31.00
2018,08,20,16,37,31.00
2018,08,20,16,38,31.10
2018,08,20,16,39,31.10
2018,08,20,16,40,31.10
2018,08,20,16,41,31.10
2018,08,20,16,42,31.20
2018,08,20,16,43,31.20
2018,08,20,16,44,31.20
2018,08,20,16,45,31.20
2018,08,20,16,46,31.30
2018,08,20,16,47,31.30
2018,08,20,16,48,31.20
2018,08,20,16,49,31.20
2018,08,20,16,50,31.20
2018,08,20,16,51,31.20
2018,08,20,16,52,31.20
2018,08,20,16,53,31.20
2018,08,20,16,54,31.20
2018,08,20,16,55,31.20
2018,08,20,16,56,31.20
2018,08,20,16,57,31.20
2018,08,20,16,58,31.20
2018,08,20,16,59,31.10
2018,08,20,17,00,31.10
2018,08,20,17,01,31.10
2018,08,20,17,02,31.10
2018,08,20,17,03,31.10
2018,08,20,17,04,31.00
2018,08,20,17,05,31.00
2018,08,20,17,06,31.00
2018,08,20,17,07,31.00
2018,08,20,17,08,31.00
2018,08,20,17,09,31.00
2018,08,20,17,10,31.00
2018,08,20,17,11,31.00
2018,08,20,17,12,30.90
2018,08,20,17,13,30.90
2018,08,20,17,14,30.90
2018,08,20,17,15,30.90
2018,08,20,17,16,30.90
2018,08,20,17,17,30.90
2018,08,20,17,18,30.90
2018,08,20,17,19,30.90